IRNSS-1A

Last updated on Mon Feb 16 2026 00:02:48 GMT+0000 (Coordinated Universal Time)

1 39199U 13034A 26046.12355315 .00000085 00000+0 00000+0 0 9996 2 39199 35.4497 65.6167 0018553 192.6854 346.4540 1.00278301 46146
UTC large
Height (km)
Speed (km/s)
/
Latitude / Longitude
Inclination (degrees)
Orbital Period (minutes)
Azimuth
Elevation
Range (km)
Doppler Factor

Next 0 passes for location: London (51.5072 / 0.1276)

Sorry there are no passes over London.